Regional Weather Roundup
Issued by NWS

Home | Current Version | Previous Version | Graphics & Text | Print | Product List | Glossary On
Versions: 1 2 3 4 5 6 7 8 9 10 11 12 13 14 15 16 17 18 19 20 21 22 23 24 25 26 27
000
ASUS45 KBOU 191206
RWRCO

WEATHER ROUNDUP FOR COLORADO
NATIONAL WEATHER SERVICE DENVER/BOULDER CO
600 AM MDT SAT APR 19 2014

NOTE: "FAIR" INDICATES FEW OR NO CLOUDS BELOW 12000 FEET WITH NO
SIGNIFICANT WEATHER AND/OR OBSTRUCTIONS TO VISIBILITY.

COZ001>005-013-030-031-191300-
...NORTHWEST COLORADO...

CITY           SKY/WX    TMP DP  RH WIND       PRES   REMARKS
CRAIG          MOCLDY    36  31  82 E5        30.07R
HAYDEN         PTCLDY    39  28  65 E6        30.09S
MEEKER         CLOUDY    47  34  60 CALM      30.07S
MOUNT WERNER   CLOUDY    37  23  56 W8        30.23R
STEAMBOAT SPGS CLOUDY    39  28  65 CALM      30.08S
WALDEN         CLOUDY    36  25  64 NE3       30.11R
$$

COZ006>008-011-191300-
...WEST CENTRAL VALLEYS...

CITY           SKY/WX    TMP DP  RH WIND       PRES   REMARKS
GRAND JUNCTION LGT RAIN  53  41  63 N12       30.04R
MONTROSE       CLOUDY    54  35  48 CALM      30.08S
EAGLE          CLOUDY    45  34  65 CALM      30.11R
RIFLE          MOCLDY    48  35  60 NW5       30.05R
DELTA          CLOUDY    58  37  44 SW10      30.05S
NUCLA          DRIZZLE   46  41  81 E5        30.15F
$$

COZ017>023-064>068-191300-
...SOUTHWEST COLORADO...

CITY           SKY/WX    TMP DP  RH WIND       PRES   REMARKS
DURANGO        CLOUDY    44  43  96 S3        30.14S
CORTEZ         CLOUDY    47  45  93 CALM      30.12S
PAGOSA SPRINGS DRIZZLE   43  42  97 CALM      30.18S
TELLURIDE      RAIN      37  36  93 CALM      30.18S
WOLF CREEK PAS SNOW      28  28 100 SW17      30.26S VSB 1/4 WCI  16
$$

COZ009-010-012-014-032>034-037-058>063-191300-
...CENTRAL COLORADO...

CITY           SKY/WX    TMP DP  RH WIND       PRES   REMARKS
ASPEN          PTCLDY    37  29  72 SW7       30.12R
BUENA VISTA    MOCLDY    38  28  68 CALM      30.12S
COPPER MTN     MOCLDY    34  27  75 W13       30.26S WCI  25
BERTHOUD PASS  FAIR      27  16  63 NW15      30.27F WCI  15
COTTONWOOD PAS CLOUDY    43  27  52 W5        30.18S
GUNNISON       CLOUDY    37  28  70 CALM      30.16S
KREMMLING      PTCLDY    36  28  75 SE5       30.12S
LEADVILLE      MOCLDY    29  22  75 N5        30.18R WCI  24
MONARCH PASS   LGT SNOW  30  25  80 SW10      30.36S WCI  21
SALIDA         CLOUDY    43  29  58 CALM      30.19R
SUNLIGHT       CLOUDY    36  30  80 W3        30.24S
WILKERSON PASS CLOUDY    34  21  60 SW5       30.26S WCI  30
$$

COZ069>075-191300-
...SAN LUIS VALLEY/SANGRE DE CRISTO MOUNTAINS...

CITY           SKY/WX    TMP DP  RH WIND       PRES   REMARKS
ALAMOSA        CLOUDY    44  35  70 S8        30.13R
LA VETA PASS   MOCLDY    34  30  86 SW17G30   30.19R WCI  23
SAGUACHE       CLOUDY    45  32  61 SE15      30.14R
$$

COZ035-036-038>040-191300-
...NORTHERN COLORADO FRONT RANGE...

CITY           SKY/WX    TMP DP  RH WIND       PRES   REMARKS
DENVER INTL AP CLOUDY    49  32  52 SE8       29.97R
DMNS CITY PARK   N/A     53  31  41 E2        29.97S
AURORA         MOCLDY    52  30  43 E8        29.98R
FRONT RANGE AP NOT AVBL
ERIE MUNI ARPT CLOUDY    55  32  41 SE5       29.96R
BOULDER MUN AP CLOUDY    54  32  43 CALM      29.96R
CENTENNIAL     CLOUDY    51  30  44 CALM      29.98R
BROOMFIELD     CLOUDY    55  30  38 NE5       29.99R
FORT COLLINS   CLOUDY    48  36  61 NE5       29.96R
LONGMONT       CLOUDY    52  36  56 CALM      29.98R
$$

COZ041-046-047-076>085-087-088-191300-
...PIKES PEAK/PALMER DIVIDE AND SOUTHERN FOOTHILLS...

CITY           SKY/WX    TMP DP  RH WIND       PRES   REMARKS
COLO. SPRINGS  MOCLDY    52  26  36 N6        30.00S
A. F. ACADEMY  CLOUDY    47  28  47 N6        30.02R
ELLICOTT       NOT AVBL
FALCON         MOCLDY    49  25  37 NW7       30.04S
FORT CARSON    MOCLDY    47  31  53 NW6       29.97S
LIMON          CLOUDY    48  33  56 N9        29.97R
MONUMENT HILL  CLOUDY    46  27  46 SW8       30.03S
TRINIDAD       CLOUDY    56  33  42 SW21      30.01S
$$

COZ042>045-048>051-090-091-191300-
...NORTHEAST COLORADO...

CITY           SKY/WX    TMP DP  RH WIND       PRES   REMARKS
GREELEY ARPT   CLOUDY    45  32  61 SE3       29.94R
AKRON          CLOUDY    52  36  54 NW15      29.93R
BURLINGTON     CLOUDY    47  38  71 W13       29.90R
WRAY           CLOUDY    46  42  86 W6        29.87R
STERLING       CLOUDY    57  39  51 N9        29.91R
HOLYOKE        CLOUDY    48  43  81 NW8       29.88R
FORT MORGAN    CLOUDY    54  33  44 N14       29.93R
$$

COZ086-089-092>099-191300-
...SOUTHEAST COLORADO...

CITY           SKY/WX    TMP DP  RH WIND       PRES   REMARKS
PUEBLO         MOCLDY    46  38  73 CALM      29.94R
LA JUNTA       MOCLDY    57  37  47 W12       29.91R
LAMAR          PTCLDY    54  40  59 W10       29.89R
SPRINGFIELD      N/A     50  43  77 S18       29.97R
$$



USA.gov is the U.S. government's official web portal to all federal, state and local government web resources and services.